Regional Weather Roundup
Issued by NWS Mt. Holly, NJ

Home | Current Version | Previous Version | Text Only | Print | Product List | Glossary On
Versions: 1 2 3 4 5 6 7 8 9 10 11 12 13 14 15 16 17 18 19 20 21 22 23 24 25 26 27 28 29 30 31 32 33 34 35 36 37 38 39 40 41 42 43 44 45 46 47 48 49 50
000
ASUS41 KPHI 251011
RWRPHI

REGIONAL WEATHER ROUNDUP
NATIONAL WEATHER SERVICE MOUNT HOLLY NJ
600 AM EDT MON MAY 25 2015

NOTE:  "FAIR" INDICATES FEW OR NO CLOUDS BELOW 12,000 FEET WITH NO
SIGNIFICANT WEATHER AND/OR OBSTRUCTIONS TO VISIBILITY.

 * = STATION DOES NOT REPORT PRECIPITATION (E.G. RAIN, SNOW, ETC.)
        OR FOG.

NJZ015>026-251100-
SOUTHERN NEW JERSEY

CITY           SKY/WX    TMP DP  RH WIND       PRES   REMARKS
POMONA         PTCLDY    60  56  86 S5        30.28F
RIO GRANDE*    PTCLDY    61  54  77 S5        30.30S
MILLVILLE      CLEAR     57  56  96 CALM      30.28S
WRIGHTSTOWN    MOCLDY    57  55  91 S2        30.25S
MOUNT HOLLY    MOCLDY    58  54  86 CALM      30.27S
TRENTON        CLOUDY    60  55  83 S3        30.26S

$$
NJZ001>014-251100-
NORTHERN NEW JERSEY

CITY           SKY/WX    TMP DP  RH WIND       PRES   REMARKS
SUSSEX         CLOUDY    55  49  80 SW5       30.27S
ANDOVER*         N/A     58  54  86 CALM      30.26S
MORRISTOWN     MOCLDY    57  52  82 CALM      30.26S
NEWARK         MOCLDY    62  54  74 SE5       30.26S
TETERBORO      PTCLDY    62  52  69 S3        30.25S
CALDWELL       MOCLDY    62  51  67 CALM      30.26S
SOMERVILLE     CLOUDY    54  49  83 CALM      30.25S
ALLAIRE*       PTCLDY    59  48  67 SW5       30.28S
TOMS RIVER*    PTCLDY   N/A N/A N/A CALM      30.28S

$$
PAZ043-044-047-054-055-060>062-066>071-251100-
EASTERN PENNSYLVANIA

CITY           SKY/WX    TMP DP  RH WIND       PRES   REMARKS
PHILADELPHIA   MOCLDY    65  57  75 S6        30.27S
NORTH PHILA    MOCLDY    64  54  69 S3        30.28S
BLUE BELL      MOCLDY    63  57  82 CALM      30.26S
DOYLESTOWN     CLOUDY    60  56  86 CALM      30.26R
QUAKERTOWN*    MOCLDY    57  55  94 CALM      30.27R
POTTSTOWN      PTCLDY    61  57  87 S3        30.27S
LANCASTER      CLEAR     58  57  97 SE3       30.23F FOG
COATESVILLE    CLEAR     57  57 100 CALM      30.27S
READING        PTCLDY    64  56  75 S3        30.23S
ALLENTOWN      CLOUDY    59  50  72 CALM      30.25S
MOUNT POCONO   CLOUDY    62  51  67 CALM      30.27S
HAZLETON       CLOUDY    64  54  68 CALM      30.28S
WILKES BARRE   CLOUDY    63  50  62 CALM      30.23F

$$
DEZALL-MDZ008-012-015-019-020-251100-
DELAWARE AND EASTERN MARYLAND

CITY           SKY/WX    TMP DP  RH WIND       PRES   REMARKS
WILMINGTON     PTCLDY    62  58  86 S5        30.27S
DOVER          CLEAR     63  63 100 S8        30.24S
GEORGETOWN     CLEAR     60  56  86 SW5       30.30R
EASTON         CLEAR     66  61  85 S6        30.31S
PATUXENT       CLEAR     65  56  72 SW8       30.28R
OCEAN CITY     CLEAR     64  59  83 SW6       30.31R
WALLOPS ISLAND CLEAR     58  57  97 S6        30.32R
CAMBRIDGE      CLEAR     63  55  77 S3        30.28S
SALISBURY      CLEAR     58  56  93 CALM      30.30R

$$
PAZ001-021-NYZ056-072-MDZ011-DCZ001-251100-
OTHER NEARBY LOCATIONS

CITY           SKY/WX    TMP DP  RH WIND       PRES   REMARKS
HARRISBURG     PTCLDY    62  57  83 CALM      30.22S
STATE COLLEGE  CLEAR     57  48  72 CALM      30.22R
WILLIAMSPORT   CLOUDY    58  52  80 CALM      30.20S
BINGHAMTON     CLOUDY    61  46  57 S6        30.23S
NEW YORK CITY  PTCLDY    66  53  63 VRB3      30.29S
BALTIMORE      PTCLDY    61  57  87 CALM      30.24F
WASHINGTON DC  PTCLDY    67  58  72 S9        30.25F

$$


USA.gov is the U.S. government's official web portal to all federal, state and local government web resources and services.